User: anonymous   Login
Location: Unspecified
(0.0000°N, 0.0000°E)
Time: 07:52:33
(UTC+00:00)
Language:

USA 247 - Orbit

View from above orbital plane
View from above orbital plane
View from above satellite
View from above satellite

Ground track
Ground track

The orbit data is extracted from the following two-line orbital elements,

1 39462U 13072A   16209.92745729 0.00000000  00000-0  00000-0 0    03
2 39462 122.9997 339.0632 0004000   7.0389 352.9610 13.41436408    02
Epoch (UTC): 27 July 2016 22:15:32
Eccentricity: 0.0004000
inclination: 122.9997°
perigee height: 1101 km
apogee height: 1107 km
right ascension of ascending node: 339.0632°
argument of perigee: 7.0389°
revolutions per day: 13.41436408
mean anomaly at epoch: 352.9610°
orbit number at epoch: 0

The dashed part of the orbit path shows where the satellite is in the earth's shadow,  

DLR